Williamsport, PA

1:42 PM EDT on March 25, 2017 (GMT -0400)
Williamsport Rgnl

Weather History for KIPT - August, 2012

Change the Weather History Date:

Friday, August 10, 2012

  Actual Average Record
Temperature  
Mean Temperature 74 °F 72 °F  
Max Temperature 80 °F 83 °F 99 °F (1949)
Min Temperature 67 °F 62 °F 45 °F (1899)
Degree Days  
Heating Degree Days 0 0  
Month to date heating degree days 0 0  
Since 1 June heating degree days 24 41  
Since 1 July heating degree days 0 4  
Cooling Degree Days 9 7  
Month to date cooling degree days 112 75  
Year to date cooling degree days 748 508  
Since 1 June cooling degree days 640 465  
Growing Degree Days 23 (Base 50)    
Moisture  
Dew Point 66 °F    
Average Humidity 76    
Maximum Humidity 90    
Minimum Humidity 62    
Precipitation  
Precipitation 0.41 in 0.13 in 3.70 in (1912)
Month to date precipitation 0.97 1.33  
Year to date precipitation 20.72 24.50  
Sea Level Pressure  
Sea Level Pressure 29.78 in    
Wind  
Wind Speed 5 mph (SE)    
Max Wind Speed 17 mph    
Max Gust Speed 21 mph    
Visibility 8 miles    
Events Rain , Thunderstorm    
T = Trace of Precipitation, MM = Missing Value Source: NWS Daily Summary

Daily Weather History Graph

Daily Weather History Graph

Search for Another Location

Airport or City:

Trip Planner

Search our weather history database for the weather conditions in past years. The results will help you decide how hot, cold, wet, or windy it might be!

Date:

Astronomy

Aug. 10, 2012 Rise Set
Actual Time 6:12 AM EDT 8:12 PM EDT
Civil Twilight 5:42 AM EDT 8:42 PM EDT
Nautical Twilight 5:05 AM EDT 9:19 PM EDT
Astronomical Twilight 4:25 AM EDT 9:59 PM EDT
Moon No Moon Rise 2:52 PM EDT (8/10)
Length of Visible Light 15h 00m
Length of Day
14h 00m
Last Quarter, 42% of the Moon is Illuminated
Aug 10
Last Quarter
Aug 17
New
Aug 24
First Quarter
Aug 31
Full
Sep 8
Last Quarter

Hourly Weather History & Observations

Time (EDT) Temp. Heat Index Dew Point Humidity Pressure Visibility Wind Dir Wind Speed Gust Speed Precip Events Conditions
12:54 AM 68.0 °F - 64.9 °F 90% 29.87 in 10.0 mi WSW 5.8 mph - N/A   Scattered Clouds
1:54 AM 69.1 °F - 64.0 °F 84% 29.83 in 10.0 mi Calm Calm - N/A   Scattered Clouds
2:54 AM 68.0 °F - 64.0 °F 87% 29.81 in 10.0 mi Calm Calm - N/A   Scattered Clouds
3:54 AM 66.9 °F - 64.9 °F 93% 29.79 in 8.0 mi WNW 3.5 mph - 0.09 in Thunderstorm Overcast
4:10 AM 66.2 °F - 64.4 °F 94% 29.81 in 8.0 mi West 6.9 mph - 0.00 in Thunderstorm Thunderstorm
4:18 AM 68.0 °F - 64.4 °F 88% 29.82 in 7.0 mi West 16.1 mph 20.7 mph 0.00 in Rain , Thunderstorm Light Thunderstorms and Rain
4:35 AM 66.2 °F - 66.2 °F 100% 29.83 in 3.0 mi WSW 6.9 mph 18.4 mph 0.04 in Rain , Thunderstorm Heavy Rain
4:42 AM 66.2 °F - 66.2 °F 100% 29.82 in 3.0 mi West 12.7 mph - 0.06 in Rain , Thunderstorm Thunderstorms and Rain
4:54 AM 66.9 °F - 66.0 °F 97% 29.83 in 2.5 mi West 12.7 mph - 0.10 in Rain , Thunderstorm Heavy Rain
4:57 AM 66.2 °F - 66.2 °F 100% 29.83 in 1.5 mi West 10.4 mph - 0.05 in Rain Heavy Rain
5:00 AM 66.2 °F - 66.2 °F 100% 29.83 in 1.2 mi West 6.9 mph - 0.13 in Rain , Thunderstorm Heavy Rain
5:09 AM 66.2 °F - 66.2 °F 100% 29.82 in 3.0 mi West 6.9 mph - 0.17 in Rain , Thunderstorm Thunderstorms and Rain
5:27 AM 68.0 °F - 66.2 °F 94% 29.83 in 8.0 mi West 5.8 mph - 0.18 in Rain Light Rain
5:54 AM 68.0 °F - 66.0 °F 93% 29.81 in 10.0 mi West 4.6 mph - 0.19 in Rain Light Rain
6:36 AM 68.0 °F - 66.2 °F 94% 29.82 in 3.0 mi Calm Calm - 0.00 in   Mostly Cloudy
6:54 AM 68.0 °F - 66.0 °F 93% 29.80 in 3.0 mi East 3.5 mph - 0.00 in Rain Light Rain
7:54 AM 69.1 °F - 66.0 °F 90% 29.78 in 5.0 mi ENE 3.5 mph - 0.00 in   Mostly Cloudy
8:54 AM 70.0 °F - 66.9 °F 90% 29.79 in 5.0 mi East 4.6 mph - N/A   Overcast
9:32 AM 69.8 °F - 68.0 °F 94% 29.79 in 5.0 mi East 5.8 mph - 0.00 in Rain Light Rain
9:54 AM 70.0 °F - 68.0 °F 93% 29.78 in 5.0 mi East 6.9 mph - 0.00 in Rain Light Rain
10:54 AM 71.1 °F - 68.0 °F 90% 29.78 in 5.0 mi ESE 10.4 mph - 0.02 in Rain Light Rain
11:54 AM 73.0 °F - 66.9 °F 81% 29.76 in 5.0 mi East 3.5 mph - 0.01 in   Haze
12:54 PM 73.0 °F - 66.0 °F 79% 29.74 in 10.0 mi ESE 5.8 mph - 0.00 in   Overcast
1:40 PM 73.4 °F - 66.2 °F 78% 29.74 in 10.0 mi SSE 4.6 mph - N/A   Mostly Cloudy
1:54 PM 75.9 °F - 66.9 °F 74% 29.73 in 10.0 mi ESE 6.9 mph - N/A   Mostly Cloudy
2:54 PM 75.9 °F - 66.9 °F 74% 29.73 in 10.0 mi SSE 4.6 mph - N/A   Overcast
3:10 PM 75.2 °F - 66.2 °F 73% 29.74 in 10.0 mi SSE 4.6 mph - N/A   Overcast
3:54 PM 77.0 °F - 66.9 °F 71% 29.73 in 10.0 mi Variable 3.5 mph - N/A   Overcast
4:26 PM 78.8 °F - 68.0 °F 69% 29.73 in 10.0 mi Calm Calm - N/A   Mostly Cloudy
4:54 PM 77.0 °F - 66.0 °F 69% 29.72 in 10.0 mi East 3.5 mph - N/A   Mostly Cloudy
5:11 PM 78.8 °F - 66.2 °F 65% 29.72 in 10.0 mi Variable 3.5 mph - N/A   Scattered Clouds
5:54 PM 80.1 °F 82.1 °F 66.0 °F 62% 29.71 in 10.0 mi Calm Calm - N/A   Partly Cloudy
6:54 PM 78.1 °F - 66.9 °F 68% 29.71 in 10.0 mi Variable 3.5 mph - N/A   Clear
7:54 PM 75.9 °F - 66.9 °F 74% 29.72 in 10.0 mi East 4.6 mph - N/A   Clear
8:54 PM 75.9 °F - 68.0 °F 76% 29.72 in 10.0 mi SE 10.4 mph - N/A   Overcast
9:54 PM 75.9 °F - 68.0 °F 76% 29.74 in 10.0 mi East 5.8 mph - N/A   Scattered Clouds
10:54 PM 73.9 °F - 68.0 °F 82% 29.74 in 10.0 mi NE 3.5 mph - N/A   Partly Cloudy
11:54 PM 73.0 °F - 68.0 °F 84% 29.74 in 10.0 mi East 3.5 mph - N/A   Clear